This is the latest recevied weather packets stored in our database for station/object XE2OR-10. If no packets are shown the sender has not sent any weather packets the latest 10 day(s).
| Time | Temp. | Humidity | Pressure | Rain* | Wind** | Luminosity | Snow |
|---|---|---|---|---|---|---|---|
| 1777591129 | 22.78° C | 88% | 1012.7 hPa | 0 mm | - | 14 W/m² | - |
| 1777590832 | 23.33° C | 87% | 1012.9 hPa | 0 mm | - | 12 W/m² | - |
| 1777590529 | 23.33° C | 87% | 1012.8 hPa | 0 mm | - | 7 W/m² | - |
| 1777590229 | 23.33° C | 87% | 1012.4 hPa | 0 mm | - | 10 W/m² | - |
| 1777589929 | 23.33° C | 87% | 1012.4 hPa | 0 mm | - | 16 W/m² | - |
| 1777589633 | 23.33° C | 87% | 1012.4 hPa | 0 mm | - | 22 W/m² | - |
| 1777589329 | 23.33° C | 87% | 1012.6 hPa | 0 mm | - | 21 W/m² | - |
| 1777589032 | 23.33° C | 87% | 1012.4 hPa | 0 mm | - | 22 W/m² | - |
| 1777588729 | 23.33° C | 87% | 1012.7 hPa | 0 mm | - | 14 W/m² | - |
| 1777588429 | 23.33° C | 87% | 1012.7 hPa | 0 mm | - | 14 W/m² | - |
| 1777588129 | 23.33° C | 87% | 1012.2 hPa | 0 mm | - | 17 W/m² | - |
| 1777587832 | 23.33° C | 87% | 1012.5 hPa | 0 mm | - | 14 W/m² | - |
| 1777587529 | 23.33° C | 87% | 1012.5 hPa | 0 mm | - | 15 W/m² | - |
| 1777587232 | 23.89° C | 87% | 1012.2 hPa | 0 mm | - | 28 W/m² | - |
| 1777586929 | 23.89° C | 87% | 1012.2 hPa | 0 mm | - | 35 W/m² | - |
| 1777586629 | 23.89° C | 87% | 1012.2 hPa | 0 mm | - | 45 W/m² | - |
| 1777586329 | 24.44° C | 86% | 1012.1 hPa | 0 mm | - | 54 W/m² | - |
| 1777586033 | 24.44° C | 86% | 1012.2 hPa | 0 mm | - | 86 W/m² | - |
| 1777585729 | 24.44° C | 86% | 1012 hPa | 0 mm | - | 111 W/m² | - |
| 1777585432 | 24.44° C | 86% | 1012.2 hPa | 0 mm | - | 96 W/m² | - |
| 1777585129 | 24.44° C | 86% | 1012.6 hPa | 0 mm | - | 70 W/m² | - |
| 1777584829 | 24.44° C | 86% | 1012.2 hPa | 0 mm | - | 74 W/m² | - |
| 1777584529 | 25° C | 86% | 1012.3 hPa | 0 mm | - | 107 W/m² | - |
| 1777584232 | 24.44° C | 86% | 1012.4 hPa | 0 mm | - | 100 W/m² | - |
| 1777583929 | 25° C | 86% | 1012.3 hPa | 0 mm | - | 93 W/m² | - |
* Rain latest hour (hover to see other rain measurements)
** Current wind speed in m/s (hover to see current wind gust speed)